Regional Weather Roundup
Issued by NWS

Home | Current Version | Previous Version | Graphics & Text | Print | Product List | Glossary On
Versions: 1 2 3 4 5 6 7 8 9 10 11 12 13 14 15 16 17 18 19 20 21 22 23 24 25 26 27 28 29 30 31 32 33 34 35 36 37 38 39 40 41 42 43 44 45 46 47 48 49 50
000
ASUS43 KLOT 261912
RWRIL

ILLINOIS REGIONAL WEATHER ROUNDUP
NATIONAL WEATHER SERVICE CHICAGO/ROMEOVILLE IL
200 PM CDT SUN APR 26 2015

NOTE: "FAIR" INDICATES FEW OR NO CLOUDS BELOW 12,000 FEET WITH NO
SIGNIFICANT WEATHER AND/OR OBSTRUCTIONS TO VISIBILITY.

* THESE STATIONS ARE NOT UNDER NWS QUALITY CONTROL. THEY ALSO MAY NOT
  REPORT WEATHER SUCH AS PRECIPITATION OR FOG.

ILZ001-002-007-009-015-016-024-262000-
NORTHWEST ILLINOIS

CITY           SKY/WX    TMP DP  RH WIND       PRES   REMARKS
MOLINE         SUNNY     59  33  37 E8G16     30.03F
STERLING*      SUNNY     57  36  44 N10G16    30.04S
SAVANNA*       SUNNY     58  29  32 NE9       30.04F
$$

ILZ003-004-008-010-011-017-018-262000-
NORTH CENTRAL ILLINOIS

CITY           SKY/WX    TMP DP  RH WIND       PRES   REMARKS
ROCKFORD       MOSUNNY   57  28  33 E3        30.05F
FREEPORT*      SUNNY     55  30  37 NE8G16    30.05F
ROCHELLE*      PTSUNNY   54  33  45 NE13      30.03F
DE KALB*       MOSUNNY   55  33  44 N10G18    30.02F
PERU*          MOSUNNY   56  33  42 NE14      30.03S
$$

ILZ005-006-012>014-019>023-262000-
NORTHEAST ILLINOIS

CITY           SKY/WX    TMP DP  RH WIND       PRES   REMARKS
CHICAGO-OHARE  MOSUNNY   55  26  32 N17G23    30.01F
CHICAGO-MIDWAY MOSUNNY   56  26  31 N17       30.01F
AURORA         SUNNY     57  31  37 N13G21    30.01F
LANSING*       SUNNY     51  28  42 N13G21    30.01S
JOLIET*        SUNNY     57  31  37 NE12G21   30.01S
WAUKEGAN       SUNNY     52  31  44 N8G18     30.02S
DUPAGE AIRPORT SUNNY     58  33  39 N13       30.00F
KANKAKEE*      SUNNY     54  33  45 NE18      30.00F
WHEELING       SUNNY     55  28  35 N12       30.03F
MORRIS*        SUNNY     57  33  39 NE7       29.99F
ROMEOVILLE*    SUNNY     54  29  37 N14G20    30.00F
NORTHERLY ISL    N/A     47  33  58 N12         N/A
$$

LMZ740>746-262000-
SOUTHERN LAKE MICHIGAN

STATION/POSITION SKY/WX   TEMP    WIND        PRES    VSBY  WAVE
                          AIR SEA DIR/SP/G                  HT/PER
                          (F)     (DEG/KT/KT) (MB)    (MI)  (FT/S)
HARRISON CRIB              38     350/ 17/ 18   N/A
BURNHAM HARBOR             49     360/  8/ 16   N/A
CALUMET HARBOR             44     340/ 11/ 15   N/A
BURNS HARBOR               41     350/ 12/ 14 1016.9F
MICHIGAN CITY              41     330/ 13/ 14   N/A
MICHIGAN CITY 6N           38 45  360/ 14/ 16   N/A           3/ 4
$$

ILZ025>027-034>036-040-047-049-050-058-095>099-262000-
WEST-CENTRAL ILLINOIS

CITY           SKY/WX    TMP DP  RH WIND       PRES   REMARKS
QUINCY         SUNNY     59  34  39 NE14      29.99F
GALESBURG*     SUNNY     57  33  39 E7G20     30.02S
MACOMB*        SUNNY     58  37  45 E13G18    30.03F
JACKSONVILLE*  SUNNY     60  35  40 N12G18    29.98F
PITTSFIELD*    SUNNY     59  35  40 N13G18    29.99S
$$

ILZ028>032-037-038-041>044-048-051>054-059>061-262000-
CENTRAL ILLINOIS

CITY           SKY/WX    TMP DP  RH WIND       PRES   REMARKS
PONTIAC        SUNNY     57  37  46 NE16      30.01S
BLOOMINGTON    MOSUNNY   57  39  51 NE14G29   30.00S
DECATUR        SUNNY     57  37  47 NE16G25   29.96F
PEORIA         SUNNY     60  35  39 NE12G17   30.01S
LACON*         SUNNY     55  35  45 CALM      30.01F
LINCOLN*       SUNNY     58  38  48 NE13G21   29.98S
SPRINGFIELD    SUNNY     59  38  45 NE12G23   29.98F
TAYLORVILLE    SUNNY     57  36  44 N16G24    29.97S
$$

ILZ033-039-045-046-055>057-062-063-262000-
EAST-CENTRAL ILLINOIS

CITY           SKY/WX    TMP DP  RH WIND       PRES   REMARKS
CHAMPAIGN      SUNNY     56  38  50 NE16G23   29.96F
DANVILLE*      PTSUNNY   55  38  53 NE17      29.93F
RANTOUL*       MOSUNNY   57  38  48 NE14G23   29.97S
MATTOON        SUNNY     56  37  49 N16G24    29.93F
PARIS*         SUNNY     57  38  49 NE9G17    29.94F
$$

ILZ079-100>102-262000-
SOUTHWEST ILLINOIS

CITY           SKY/WX    TMP DP  RH WIND       PRES   REMARKS
BELLEVILLE     SUNNY     60  38  43 NE10      29.93S
CAHOKIA*       SUNNY     61  36  39 NE14G23   29.94S
SPARTA*        SUNNY     58  39  48 NE12G18   29.94R
$$

ILZ064>066-069>071-074>076-080>082-084>086-088>090-092>094-262000-
SOUTH-CENTRAL ILLINOIS

CITY           SKY/WX    TMP DP  RH WIND       PRES   REMARKS
CARBONDALE     SUNNY     62  38  40 N14       29.90S
CAIRO*         PTSUNNY   59  47  63 N7        29.87F
EFFINGHAM*     SUNNY     57  35  43 NW14G24   29.95S
MARION         MOSUNNY   61  37  41 NE12      29.90F
MT. VERNON     SUNNY     61  34  36 NE10G16   29.92S
CENTRALIA*     SUNNY     61  33  34 N14G20    29.92S
SALEM*         SUNNY     61  37  41 N18       29.93S
METROPOLIS*    PTSUNNY   61  46  57 NE12      29.86F
$$

ILZ067-068-072-073-078-083-087-091-262000-
SOUTHEAST ILLINOIS

CITY           SKY/WX    TMP DP  RH WIND       PRES   REMARKS
LAWRENCEVILLE  SUNNY     61  37  41 NE18      29.91S
FLORA*         SUNNY     59  35  40 N12G17    29.92F
FAIRFIELD*     SUNNY     60  32  35 N9G22     29.90S
HARRISBURG*    SUNNY     61  40  45 N9        29.91S
ROBINSON*      SUNNY     60  34  38 N10G21    29.91F
CARMI*         SUNNY     61  28  28 N8G17     29.89S
$$

ABBREVIATIONS USED IN REMARKS
   TC - TEMPERATURE IN CELSIUS
  WCI - WIND CHILL INDEX
   HX - HEAT INDEX
  VSB - VISIBILITY
$$




USA.gov is the U.S. government's official web portal to all federal, state and local government web resources and services.